Time,TemperatureF,DewpointF,PressureIn,WindDirection,WindDirectionDegrees,WindSpeedMPH,WindSpeedGustMPH,Humidity,HourlyPrecipIn,Conditions,Clouds,dailyrainin,SoftwareType,DateUTC
2013-10-14 00:02:00,41.3,35.0,30.35,ENE,68,0.0,1.0,77,0.00,,,0.00,weatherlink.com 1.10,2013-10-14 05:02:00,
2013-10-14 00:17:00,40.3,34.0,30.34,ENE,72,0.0,1.0,79,0.00,,,0.00,weatherlink.com 1.10,2013-10-14 05:17:00,
2013-10-14 00:32:00,40.2,35.0,30.34,ENE,68,0.0,1.0,80,0.00,,,0.00,weatherlink.com 1.10,2013-10-14 05:32:00,
2013-10-14 00:47:00,38.9,33.0,30.35,ENE,68,0.0,0.0,79,0.00,,,0.00,weatherlink.com 1.10,2013-10-14 05:47:00,
2013-10-14 01:02:00,36.4,33.0,30.36,ENE,68,0.0,0.0,86,0.00,,,0.00,weatherlink.com 1.10,2013-10-14 06:02:00,
2013-10-14 01:17:00,36.7,34.0,30.36,ENE,67,0.0,0.0,91,0.00,,,0.00,weatherlink.com 1.10,2013-10-14 06:17:00,
2013-10-14 01:32:00,37.3,34.0,30.36,ENE,68,0.0,0.0,89,0.00,,,0.00,weatherlink.com 1.10,2013-10-14 06:32:00,
2013-10-14 01:47:00,38.8,35.0,30.36,ENE,68,0.0,0.0,87,0.00,,,0.00,weatherlink.com 1.10,2013-10-14 06:47:00,
2013-10-14 02:03:00,39.7,36.0,30.37,ENE,68,0.0,1.0,86,0.00,,,0.00,weatherlink.com 1.10,2013-10-14 07:03:00,
2013-10-14 02:19:00,38.6,35.0,30.37,ENE,68,0.0,1.0,86,0.00,,,0.00,weatherlink.com 1.10,2013-10-14 07:19:00,
2013-10-14 02:33:00,39.4,36.0,30.36,ENE,61,0.0,2.0,88,0.00,,,0.00,weatherlink.com 1.10,2013-10-14 07:33:00,
2013-10-14 02:48:00,38.3,35.0,30.36,ENE,67,1.0,1.0,89,0.00,,,0.00,weatherlink.com 1.10,2013-10-14 07:48:00,
2013-10-14 03:03:00,37.7,35.0,30.36,ENE,72,0.0,1.0,90,0.00,,,0.00,weatherlink.com 1.10,2013-10-14 08:03:00,
2013-10-14 03:18:00,37.4,35.0,30.35,East,81,1.0,1.0,91,0.00,,,0.00,weatherlink.com 1.10,2013-10-14 08:18:00,
2013-10-14 03:48:00,37.3,35.0,30.35,East,86,0.0,1.0,92,0.00,,,0.00,weatherlink.com 1.10,2013-10-14 08:48:00,
2013-10-14 04:03:00,37.0,35.0,30.35,East,86,0.0,1.0,92,0.00,,,0.00,weatherlink.com 1.10,2013-10-14 09:03:00,
2013-10-14 04:18:00,37.0,35.0,30.35,East,86,0.0,0.0,93,0.00,,,0.00,weatherlink.com 1.10,2013-10-14 09:18:00,
2013-10-14 04:33:00,36.3,35.0,30.35,East,86,0.0,0.0,94,0.00,,,0.00,weatherlink.com 1.10,2013-10-14 09:33:00,
2013-10-14 04:48:00,36.7,35.0,30.35,East,86,0.0,0.0,94,0.00,,,0.00,weatherlink.com 1.10,2013-10-14 09:48:00,
2013-10-14 05:03:00,36.2,35.0,30.35,East,86,0.0,1.0,94,0.00,,,0.00,weatherlink.com 1.10,2013-10-14 10:03:00,
2013-10-14 05:18:00,36.4,35.0,30.35,East,80,0.0,1.0,95,0.00,,,0.00,weatherlink.com 1.10,2013-10-14 10:18:00,
2013-10-14 05:33:00,35.6,34.0,30.36,East,81,0.0,0.0,95,0.00,,,0.00,weatherlink.com 1.10,2013-10-14 10:33:00,
2013-10-14 05:48:00,35.1,33.0,30.36,East,81,0.0,0.0,93,0.00,,,0.00,weatherlink.com 1.10,2013-10-14 10:48:00,
2013-10-14 06:03:00,33.1,32.0,30.36,East,81,0.0,0.0,94,0.00,,,0.00,weatherlink.com 1.10,2013-10-14 11:03:00,
2013-10-14 06:18:00,34.3,33.0,30.36,ENE,78,0.0,1.0,96,0.00,,,0.00,weatherlink.com 1.10,2013-10-14 11:18:00,
2013-10-14 06:33:00,33.2,32.0,30.36,ENE,78,0.0,0.0,95,0.00,,,0.00,weatherlink.com 1.10,2013-10-14 11:33:00,
2013-10-14 06:48:00,32.6,32.0,30.36,ENE,78,0.0,0.0,96,0.00,,,0.00,weatherlink.com 1.10,2013-10-14 11:48:00,
2013-10-14 07:03:00,33.7,33.0,30.36,ENE,78,0.0,0.0,97,0.00,,,0.00,weatherlink.com 1.10,2013-10-14 12:03:00,
2013-10-14 07:18:00,32.4,31.0,30.36,ENE,77,0.0,1.0,95,0.00,,,0.00,weatherlink.com 1.10,2013-10-14 12:18:00,
2013-10-14 07:33:00,33.1,32.0,30.36,ENE,64,1.0,2.0,97,0.00,,,0.00,weatherlink.com 1.10,2013-10-14 12:33:00,
2013-10-14 07:48:00,34.9,34.0,30.36,ENE,58,0.0,2.0,97,0.00,,,0.00,weatherlink.com 1.10,2013-10-14 12:48:00,
2013-10-14 08:03:00,36.3,36.0,30.36,ENE,61,0.0,1.0,97,0.00,,,0.00,weatherlink.com 1.10,2013-10-14 13:03:00,
2013-10-14 08:18:00,39.0,39.0,30.36,ENE,63,1.0,2.0,98,0.00,,,0.00,weatherlink.com 1.10,2013-10-14 13:18:00,
2013-10-14 08:33:00,42.3,41.0,30.36,ENE,68,3.0,4.0,96,0.00,,,0.00,weatherlink.com 1.10,2013-10-14 13:33:00,
2013-10-14 08:48:00,44.8,43.0,30.36,East,80,2.0,5.0,93,0.00,,,0.00,weatherlink.com 1.10,2013-10-14 13:48:00,
2013-10-14 09:03:00,47.2,44.0,30.36,ENE,71,4.0,7.0,88,0.00,,,0.00,weatherlink.com 1.10,2013-10-14 14:03:00,
2013-10-14 09:18:00,49.5,45.0,30.36,East,84,2.0,8.0,85,0.00,,,0.00,weatherlink.com 1.10,2013-10-14 14:18:00,
2013-10-14 09:33:00,51.5,46.0,30.35,ENE,75,8.0,8.0,81,0.00,,,0.00,weatherlink.com 1.10,2013-10-14 14:33:00,
2013-10-14 09:48:00,53.3,46.0,30.34,East,84,6.0,12.0,77,0.00,,,0.00,weatherlink.com 1.10,2013-10-14 14:48:00,
2013-10-14 10:03:00,54.8,45.0,30.33,ENE,73,10.0,12.0,70,0.00,,,0.00,weatherlink.com 1.10,2013-10-14 15:03:00,
2013-10-14 10:19:00,56.0,45.0,30.32,East,84,7.0,14.0,67,0.00,,,0.00,weatherlink.com 1.10,2013-10-14 15:19:00,
2013-10-14 10:34:00,57.1,44.0,30.32,ENE,78,6.0,14.0,63,0.00,,,0.00,weatherlink.com 1.10,2013-10-14 15:34:00,
2013-10-14 10:49:00,57.9,44.0,30.32,East,89,7.0,13.0,61,0.00,,,0.00,weatherlink.com 1.10,2013-10-14 15:49:00,
2013-10-14 11:04:00,58.4,43.0,30.31,ENE,66,6.0,14.0,58,0.00,,,0.00,weatherlink.com 1.10,2013-10-14 16:04:00,
2013-10-14 11:19:00,59.6,44.0,30.30,ENE,58,8.0,12.0,56,0.00,,,0.00,weatherlink.com 1.10,2013-10-14 16:19:00,
2013-10-14 11:34:00,59.9,43.0,30.30,NE,41,7.0,11.0,55,0.00,,,0.00,weatherlink.com 1.10,2013-10-14 16:34:00,
2013-10-14 11:49:00,60.6,43.0,30.30,East,93,4.0,11.0,52,0.00,,,0.00,weatherlink.com 1.10,2013-10-14 16:49:00,
2013-10-14 12:04:00,61.1,42.0,30.29,East,92,4.0,8.0,50,0.00,,,0.00,weatherlink.com 1.10,2013-10-14 17:04:00,
2013-10-14 12:19:00,60.8,39.0,30.29,ESE,120,6.0,9.0,45,0.00,,,0.00,weatherlink.com 1.10,2013-10-14 17:19:00,
2013-10-14 12:34:00,63.3,39.0,30.27,ENE,77,5.0,10.0,41,0.00,,,0.00,weatherlink.com 1.10,2013-10-14 17:34:00,
2013-10-14 12:49:00,62.8,39.0,30.26,ENE,71,4.0,9.0,41,0.00,,,0.00,weatherlink.com 1.10,2013-10-14 17:49:00,
2013-10-14 13:04:00,64.7,39.0,30.25,ESE,107,6.0,10.0,39,0.00,,,0.00,weatherlink.com 1.10,2013-10-14 18:04:00,
2013-10-14 13:19:00,65.0,35.0,30.24,ENE,65,4.0,11.0,33,0.00,,,0.00,weatherlink.com 1.10,2013-10-14 18:19:00,
2013-10-14 13:49:00,66.3,35.0,30.22,East,84,2.0,9.0,31,0.00,,,0.00,weatherlink.com 1.10,2013-10-14 18:49:00,
2013-10-14 14:05:00,66.8,36.0,30.21,SE,135,6.0,10.0,32,0.00,,,0.00,weatherlink.com 1.10,2013-10-14 19:05:00,
2013-10-14 14:20:00,67.4,30.0,30.20,ESE,113,10.0,11.0,25,0.00,,,0.00,weatherlink.com 1.10,2013-10-14 19:20:00,
2013-10-14 14:35:00,66.8,33.0,30.20,SE,126,0.0,8.0,28,0.00,,,0.00,weatherlink.com 1.10,2013-10-14 19:35:00,
2013-10-14 14:50:00,66.7,35.0,30.20,East,85,6.0,7.0,31,0.00,,,0.00,weatherlink.com 1.10,2013-10-14 19:50:00,
2013-10-14 15:05:00,66.9,34.0,30.19,ESE,117,2.0,6.0,30,0.00,,,0.00,weatherlink.com 1.10,2013-10-14 20:05:00,
2013-10-14 15:20:00,66.7,34.0,30.19,ESE,111,3.0,7.0,30,0.00,,,0.00,weatherlink.com 1.10,2013-10-14 20:20:00,
2013-10-14 15:35:00,66.6,34.0,30.19,ESE,110,2.0,6.0,30,0.00,,,0.00,weatherlink.com 1.10,2013-10-14 20:35:00,
2013-10-14 15:50:00,66.7,33.0,30.18,SE,140,3.0,7.0,29,0.00,,,0.00,weatherlink.com 1.10,2013-10-14 20:50:00,
2013-10-14 16:05:00,67.5,34.0,30.16,East,89,3.0,7.0,29,0.00,,,0.00,weatherlink.com 1.10,2013-10-14 21:05:00,
2013-10-14 16:20:00,67.4,33.0,30.16,ESE,107,3.0,11.0,28,0.00,,,0.00,weatherlink.com 1.10,2013-10-14 21:20:00,
2013-10-14 16:35:00,67.1,35.0,30.17,ESE,107,10.0,10.0,31,0.00,,,0.00,weatherlink.com 1.10,2013-10-14 21:35:00,
2013-10-14 16:50:00,67.1,36.0,30.16,ESE,115,4.0,7.0,32,0.00,,,0.00,weatherlink.com 1.10,2013-10-14 21:50:00,
2013-10-14 17:05:00,66.3,36.0,30.16,ESE,103,3.0,6.0,33,0.00,,,0.00,weatherlink.com 1.10,2013-10-14 22:05:00,
2013-10-14 17:20:00,65.3,36.0,30.16,ESE,110,3.0,5.0,34,0.00,,,0.00,weatherlink.com 1.10,2013-10-14 22:20:00,
2013-10-14 17:35:00,64.0,37.0,30.16,ESE,103,0.0,4.0,37,0.00,,,0.00,weatherlink.com 1.10,2013-10-14 22:35:00,
2013-10-14 17:50:00,61.7,38.0,30.15,East,79,2.0,2.0,41,0.00,,,0.00,weatherlink.com 1.10,2013-10-14 22:50:00,
2013-10-14 18:05:00,59.7,38.0,30.16,East,81,0.0,2.0,44,0.00,,,0.00,weatherlink.com 1.10,2013-10-14 23:05:00,
2013-10-14 18:20:00,57.6,38.0,30.16,ENE,78,2.0,2.0,48,0.00,,,0.00,weatherlink.com 1.10,2013-10-14 23:20:00,
2013-10-14 18:35:00,54.8,37.0,30.15,ENE,71,1.0,2.0,52,0.00,,,0.00,weatherlink.com 1.10,2013-10-14 23:35:00,
2013-10-14 18:50:00,52.9,37.0,30.14,East,86,1.0,2.0,56,0.00,,,0.00,weatherlink.com 1.10,2013-10-14 23:50:00,
2013-10-14 19:05:00,51.0,38.0,30.15,East,83,1.0,2.0,61,0.00,,,0.00,weatherlink.com 1.10,2013-10-15 00:05:00,
2013-10-14 19:20:00,50.1,38.0,30.15,ESE,108,0.0,2.0,63,0.00,,,0.00,weatherlink.com 1.10,2013-10-15 00:20:00,
2013-10-14 19:35:00,50.4,39.0,30.14,East,89,1.0,2.0,64,0.00,,,0.00,weatherlink.com 1.10,2013-10-15 00:35:00,
2013-10-14 19:50:00,49.6,39.0,30.14,East,89,1.0,3.0,67,0.00,,,0.00,weatherlink.com 1.10,2013-10-15 00:50:00,
2013-10-14 20:06:00,50.3,40.0,30.14,East,93,1.0,4.0,67,0.00,,,0.00,weatherlink.com 1.10,2013-10-15 01:06:00,
2013-10-14 20:20:00,50.0,40.0,30.14,ESE,110,0.0,3.0,69,0.00,,,0.00,weatherlink.com 1.10,2013-10-15 01:20:00,
2013-10-14 20:35:00,50.0,40.0,30.13,East,83,0.0,2.0,69,0.00,,,0.00,weatherlink.com 1.10,2013-10-15 01:35:00,
2013-10-14 20:50:00,51.3,40.0,30.13,ESE,120,3.0,4.0,66,0.00,,,0.00,weatherlink.com 1.10,2013-10-15 01:50:00,
2013-10-14 21:20:00,51.0,40.0,30.14,East,93,2.0,3.0,67,0.00,,,0.00,weatherlink.com 1.10,2013-10-15 02:20:00,
2013-10-14 21:35:00,51.2,41.0,30.14,ESE,110,2.0,4.0,67,0.00,,,0.00,weatherlink.com 1.10,2013-10-15 02:35:00,
2013-10-14 21:50:00,52.0,40.0,30.13,ESE,103,1.0,4.0,65,0.00,,,0.00,weatherlink.com 1.10,2013-10-15 02:50:00,
2013-10-14 22:05:00,51.1,40.0,30.12,East,93,1.0,3.0,67,0.00,,,0.00,weatherlink.com 1.10,2013-10-15 03:05:00,
2013-10-14 22:20:00,50.6,41.0,30.11,ESE,113,3.0,5.0,69,0.00,,,0.00,weatherlink.com 1.10,2013-10-15 03:20:00,
2013-10-14 22:35:00,50.6,41.0,30.12,ESE,115,0.0,4.0,70,0.00,,,0.00,weatherlink.com 1.10,2013-10-15 03:35:00,
2013-10-14 22:50:00,51.4,42.0,30.12,East,93,1.0,3.0,69,0.00,,,0.00,weatherlink.com 1.10,2013-10-15 03:50:00,
2013-10-14 23:05:00,50.8,42.0,30.11,East,82,2.0,3.0,71,0.00,,,0.00,weatherlink.com 1.10,2013-10-15 04:05:00,
2013-10-14 23:20:00,50.2,42.0,30.10,East,82,1.0,2.0,74,0.00,,,0.00,weatherlink.com 1.10,2013-10-15 04:20:00,
2013-10-14 23:35:00,51.2,43.0,30.10,East,82,0.0,1.0,74,0.00,,,0.00,weatherlink.com 1.10,2013-10-15 04:35:00,
2013-10-14 23:50:00,51.4,43.0,30.09,ENE,75,1.0,2.0,74,0.00,,,0.00,weatherlink.com 1.10,2013-10-15 04:50:00,